Location: Friaudour
(46.0460°N, 1.2873°E)
Time: 20:48:20
(UTC+00:00)

Cosmos 2173 Rocket - Pass Details

Date: 14 July 2020
Orbit: 944 x 1002 km, 83.0° (Epoch: 14 August)

Event Time Altitude Azimuth Distance (km) Brightness Sun altitude
Exits shadow 01:43:01 30° 206° (SSW) 1,698 4.7 -18.5°
Maximum altitude 01:46:17 67° 281° (W) 1,071 4.1 -18.2°
Drops below altitude 10° 01:52:35 10° 4° (N) 2,752 7.4 -17.7°
Sets 01:55:07 0° 7° (N) 3,696 8.3 -17.5°
